sat.trackr.live / text

‹ back to catalog

STARLINK-6255

NORAD 56550 · 2023-065AZ

PAYLOAD ACTIVE UNKNOWN

§ Identity

Operator
Country
US
Launch date
2023-05-14
Launch site
AFETR
Launch vehicle
Mass (kg)
RCS (m²)

Purposes: comms

External: N2YO · Heavens-Above · Gunter

§ Orbital elements

Epoch: 2026-09-19T22:03:48.262176Z

Period
94.27 min
Inclination
43.0019°
Eccentricity
0.0001333
Mean motion
15.27579045 rev/d
Perigee alt
482.1 km
Apogee alt
484.0 km
Semi-major
6,861.2 km
B*
5.0872e-5
RAAN
206.9719°
Arg perigee
272.5444°
Mean anomaly
87.5255°
Rev number
18,617

§ Raw data

STARLINK-62551 56550U 23065AZ  26262.91930859  .00001138  00000+0  50872-4 0  99972 56550  43.0019 206.9719 0001333 272.5444  87.5255 15.27579045186172

JSON: /api/v1/satellites/56550 · /tle

For live sub-satellite position, see the globe view (requires WebGL).

§ Visibility from observer

Set your observer location to see the next 7 days of passes ≥ 10°. The values pass through the URL so the page stays shareable.

No JS? Fill the form by hand. The geolocation button needs JavaScript.